weather.gov     
National Weather Service

Regional Weather Roundup
NWS Homepage
This page is being discontinued on March 12, 2014.
The same data is available at this site. Please update your bookmarks.
Thank you, and we apologize for the inconvenience.
Please send an email to SR-SRH.Webmaster@noaa.gov with any concerns.


Current Version
Previous Version:    01  02  03  04  05  06  07  08  09  10  11  12  13  14  15  16  17  18  19  20  21  22  23  24  25  26  27  28  29  30  
   31  32  33  34  35  36  37  38  39  40  41  42  43  44  45  46  47  48  49  50  51  52  53  54  
[Printable]
548
ASUS43 KFSD 251902
RWRFSD

WEATHER ROUNDUP FOR SE SOUTH DAKOTA/SW MINNESOTA/NW IOWA
NATIONAL WEATHER SERVICE SIOUX FALLS SD
200 PM CDT SAT OCT 25 2014

NOTE: "FAIR" INDICATES FEW OR NO CLOUDS BELOW 12,000 FEET WITH NO
SIGNIFICANT WEATHER AND OR OBSTRUCTIONS TO VISIBILITY.


SDZ038>040-050-052>070-252000-
SOUTHEAST SOUTH DAKOTA

CITY           SKY/WX    TMP DP  RH WIND       PRES   REMARKS
CHAMBERLAIN    SUNNY     66  30  25 SE5       30.12F
HURON          SUNNY     66  28  24 VRB5      30.13F
MADISON        FAIR      64  28  25 N10       30.13F
MITCHELL       SUNNY     66  31  27 E3        30.14F
SIOUX FALLS    SUNNY     66  35  31 NE6       30.12F
WINNER         FAIR      69  27  20 E9        30.12F
YANKTON        SUNNY     66  34  30 CALM      30.13F
$$

MNZ071-072-080-081-089-090-097-098-252000-
SOUTHWEST MINNESOTA

CITY           SKY/WX    TMP DP  RH WIND       PRES   REMARKS
FAIRMONT       SUNNY     64  -8   5 N16       30.10F
JACKSON        SUNNY     64  27  24 NW10      30.12F
LUVERNE        SUNNY     68  30  24 N6        30.12F
MARSHALL       SUNNY     63  28  27 N13       30.11F
MONTEVIDEO     SUNNY     64  32  29 N13G18    30.11F
PIPESTONE      SUNNY     64  27  24 N9        30.12F
REDWOOD FALLS  SUNNY     63  31  30 NW9       30.10F
TRACY          SUNNY     65  31  28 NW10G16   30.12F
WINDOM         SUNNY     64  28  25 NW10G18   30.12S
WORTHINGTON    SUNNY     63  28  27 N8        30.13F
$$

IAZ001>003-012>014-020>022-031-032-NEZ013-014-SDZ071-252000-
NORTHWEST IOWA

CITY           SKY/WX    TMP DP  RH WIND       PRES   REMARKS
CHEROKEE       SUNNY     66  37  33 N5        30.12F
DENISON        SUNNY     68  36  30 NE6       30.09F
ESTHERVILLE    SUNNY     66  31  27 N14       30.10F
LE MARS        SUNNY     68  36  30 N8        30.12F
ORANGE CITY    SUNNY     68  30  24 N6        30.12F
SHELDON        SUNNY     68  32  26 N8        30.11F
SIOUX CITY     SUNNY     70  34  26 CALM      30.12F
SPENCER        SUNNY     67  33  28 N12       30.12F
STORM LAKE     SUNNY     66  36  32 VRB7      30.13S
$$

ABBREVIATIONS USED IN REMARKS
   TC - TEMPERATURE IN CELSIUS
  WCI - WIND CHILL INDEX
   HX - HEAT INDEX
  VSB - VISIBILITY





U.S. Dept. of Commerce
NOAA National Weather Service
1325 East West Highway
Silver Spring, MD 20910
E-mail: w-nws.webmaster@noaa.gov
Page last modified: May 16, 2007
NATIONAL WEATHER SERVICE: for Safety, for Work, for Fun - FOR LIFE